Tracking 35274 objects as of 10-Sep-2026
HD Live streaming from Space Station
objects crossing your sky now

OPS 1866


OPS 1866 is no longer on orbit


NORAD ID: 2537
Int'l Code: 1966-102A
Launch date: November 8, 1966
Source: United States (US)
Launch site: AIR FORCE WESTERN TEST RANGE (AFWTR)
Decay date: 1966-11-29
Your satellite tracking list
Your tracking list is empty




NASA's NSSDC Master Catalog

Two Line Element Set (TLE):
1 02537U 66102  A 66332.01245558  .02698971 +88544-1 +00000-0 0  9994
2 02537 100.0746 068.7563 0053810 079.3593 281.2579 16.27587182003739
Source of the keplerian elements: AFSPC